Date String (YYYY-MM-DD hh:mm:ss) UTC,Instrument flags,Ambient pressure (hPa),Sample flow (lpm),Bypass flow (lpm),Sample temperature (°C),Ambient temperature (°C),ASC tube jacket temperature (°C),LED temperature (°C),Box temperature (°C),Sample RH (%),Span deviation,Mass concentration (μg/m³),Mass concentration (μg/m³),Mass concentration (μg/m³)
DateTimeUTC,F1_M11,P_M11,Q1_M11,Q2_M11,T1_M11,T2_M11,T3_M11,T4_M11,T5_M11,U1_M11,ZSPAN_M11,X0_M11,X2_M11,X1_M11
2022-05-11 11:00:00,,0823.5,5.02,0.00,26.1,25.3,00.0,35.3,27.9,14.1,0000.0,0020.64,0005.49,0002.43
2022-05-11 11:01:00,,0823.5,4.99,0.00,26.1,25.3,00.0,35.2,27.9,14.3,0000.0,0020.51,0005.50,0002.43
2022-05-11 11:02:00,,0823.4,5.01,0.00,26.1,25.3,00.0,35.2,27.9,14.5,0000.0,0021.05,0005.52,0002.44
2022-05-11 11:03:00,,0823.4,4.99,0.00,26.1,25.3,00.0,35.2,27.9,14.6,0000.0,0020.54,0005.54,0002.47
2022-05-11 11:04:00,,0823.4,5.00,0.00,26.1,25.3,00.0,35.2,27.9,14.6,0000.0,0020.33,0005.48,0002.50
2022-05-11 11:05:00,,0823.6,5.00,0.00,26.1,25.3,00.0,35.2,27.9,14.8,0000.0,0020.30,0005.52,0002.51
2022-05-11 11:06:00,,0823.6,5.00,0.00,26.1,25.4,00.0,35.2,27.9,14.8,0000.0,0019.28,0005.52,0002.52
2022-05-11 11:07:00,,0823.6,4.99,0.00,26.1,25.4,00.0,35.2,27.9,14.9,0000.0,0019.03,0005.41,0002.51
2022-05-11 11:08:00,,0823.6,5.01,0.00,26.1,25.4,00.0,35.2,27.9,15.0,0000.0,0019.65,0005.30,0002.49
2022-05-11 11:09:00,,0823.6,4.99,0.00,26.1,25.5,00.0,35.2,27.9,15.0,0000.0,0019.90,0005.38,0002.50
2022-05-11 11:10:00,,0823.6,5.00,0.00,26.1,25.5,00.0,35.2,28.0,15.1,0000.0,0020.01,0005.44,0002.49
2022-05-11 11:11:00,,0823.6,5.00,0.00,26.1,25.5,00.0,35.2,28.0,15.0,0000.0,0021.61,0005.43,0002.50
2022-05-11 11:12:00,,0823.5,5.01,0.00,26.1,25.5,00.0,35.2,28.0,15.0,0000.0,0022.35,0005.42,0002.50
2022-05-11 11:13:00,,0823.5,4.99,0.00,26.1,25.5,00.0,35.1,27.9,15.0,0000.0,0021.85,0005.43,0002.49
2022-05-11 11:14:00,,0823.5,5.01,0.00,26.1,25.5,00.0,35.1,27.9,15.0,0000.0,0021.40,0005.38,0002.47
2022-05-11 11:15:00,,0823.4,5.00,0.00,26.1,25.5,00.0,35.1,27.9,15.0,0000.0,0022.33,0005.40,0002.46
2022-05-11 11:16:00,,0823.4,5.01,0.00,26.1,25.5,00.0,35.1,28.0,15.0,0000.0,0022.31,0005.46,0002.47
2022-05-11 11:17:00,,0823.3,4.99,0.00,26.1,25.5,00.0,35.1,28.0,15.0,0000.0,0023.94,0005.47,0002.50
2022-05-11 11:18:00,,0823.3,5.01,0.00,26.1,25.4,00.0,35.1,27.9,15.0,0000.0,0024.12,0005.50,0002.51
2022-05-11 11:19:00,,0823.3,4.99,0.00,26.1,25.4,00.0,35.1,27.9,15.0,0000.0,0022.80,0005.55,0002.52
2022-05-11 11:20:00,,0823.4,5.01,0.00,26.1,25.4,00.0,35.1,27.9,15.0,0000.0,0022.21,0005.50,0002.51
2022-05-11 11:21:00,,0823.4,4.99,0.00,26.0,25.3,00.0,35.1,27.8,15.0,0000.0,0022.63,0005.42,0002.50
2022-05-11 11:22:00,,0823.4,5.01,0.00,26.0,25.3,00.0,35.1,27.8,15.0,0000.0,0021.01,0005.41,0002.50
2022-05-11 11:23:00,,0823.4,4.99,0.00,26.0,25.3,00.0,35.1,27.8,15.0,0000.0,0020.99,0005.44,0002.53
2022-05-11 11:24:00,,0823.4,5.01,0.00,26.0,25.3,00.0,35.1,27.8,15.1,0000.0,0022.12,0005.43,0002.55
2022-05-11 11:25:00,,0823.3,5.00,0.00,26.0,25.3,00.0,35.1,27.8,15.1,0000.0,0022.58,0005.41,0002.56
2022-05-11 11:26:00,,0823.3,5.01,0.00,26.0,25.3,00.0,35.1,27.8,15.1,0000.0,0022.36,0005.42,0002.55
2022-05-11 11:27:00,,0823.3,5.00,0.00,26.0,25.3,00.0,35.1,27.8,15.1,0000.0,0022.80,0005.42,0002.55
2022-05-11 11:28:00,,0823.3,5.01,0.00,26.0,25.3,00.0,35.1,27.8,15.1,0000.0,0021.93,0005.39,0002.55
2022-05-11 11:29:00,,0823.3,4.99,0.00,26.0,25.3,00.0,35.0,27.8,15.1,0000.0,0023.02,0005.45,0002.53
2022-05-11 11:30:00,,0823.2,5.01,0.00,26.0,25.3,00.0,35.0,27.8,15.1,0000.0,0024.16,0005.46,0002.52
2022-05-11 11:31:00,,0823.2,5.00,0.00,26.0,25.3,00.0,35.0,27.8,15.1,0000.0,0024.55,0005.47,0002.53
2022-05-11 11:32:00,,0823.3,4.99,0.00,25.9,25.3,00.0,35.0,27.7,15.1,0000.0,0023.98,0005.56,0002.57
2022-05-11 11:33:00,,0823.2,5.00,0.00,25.9,25.3,00.0,35.0,27.7,15.1,0000.0,0023.53,0005.61,0002.58
2022-05-11 11:34:00,,0823.2,5.01,0.00,26.0,25.2,00.0,35.0,27.7,15.1,0000.0,0022.78,0005.66,0002.58
2022-05-11 11:35:00,,0823.2,4.99,0.00,26.0,25.2,00.0,35.0,27.8,15.1,0000.0,0022.53,0005.70,0002.60
2022-05-11 11:36:00,,0823.2,5.00,0.00,26.0,25.2,00.0,35.0,27.8,15.1,0000.0,0022.44,0005.74,0002.61
2022-05-11 11:37:00,,0823.2,4.99,0.00,26.0,25.2,00.0,35.0,27.8,15.1,0000.0,0022.50,0005.72,0002.61
2022-05-11 11:38:00,,0823.2,5.01,0.00,26.0,25.2,00.0,35.0,27.8,15.1,0000.0,0021.65,0005.73,0002.63
2022-05-11 11:39:00,,0823.2,4.99,0.00,26.0,25.2,00.0,35.0,27.8,15.0,0000.0,0022.48,0005.81,0002.63
2022-05-11 11:40:00,,0823.2,5.01,0.00,26.0,25.3,00.0,35.0,27.8,15.0,0000.0,0021.35,0005.78,0002.64
2022-05-11 11:41:00,,0823.2,5.00,0.00,26.0,25.3,00.0,35.0,27.8,15.0,0000.0,0021.30,0005.80,0002.66
2022-05-11 11:42:00,,0823.2,5.00,0.00,26.0,25.3,00.0,35.0,27.8,15.0,0000.0,0020.80,0005.83,0002.67
2022-05-11 11:43:00,,0823.2,5.01,0.00,26.0,25.3,00.0,35.0,27.8,15.0,0000.0,0020.76,0005.78,0002.67
2022-05-11 11:44:00,,0823.3,5.00,0.00,26.0,25.3,00.0,35.0,27.8,15.1,0000.0,0021.46,0005.81,0002.68
2022-05-11 11:45:00,,0823.2,5.01,0.00,26.0,25.3,00.0,35.0,27.8,15.1,0000.0,0022.61,0005.74,0002.68
2022-05-11 11:46:00,,0823.2,4.99,0.00,26.0,25.3,00.0,35.0,27.8,15.1,0000.0,0022.95,0005.72,0002.68
2022-05-11 11:47:00,,0823.2,5.00,0.00,26.0,25.3,00.0,35.0,27.8,15.1,0000.0,0022.59,0005.70,0002.67
2022-05-11 11:48:00,,0823.2,5.01,0.00,26.0,25.2,00.0,35.0,27.8,15.1,0000.0,0022.08,0005.79,0002.69
2022-05-11 11:49:00,,0823.2,4.98,0.00,25.9,25.2,00.0,35.0,27.8,15.1,0000.0,0022.69,0005.86,0002.71
2022-05-11 11:50:00,,0823.2,5.01,0.00,25.9,25.2,00.0,35.0,27.7,15.1,0000.0,0023.60,0005.87,0002.72
2022-05-11 11:51:00,,0823.3,5.00,0.00,25.9,25.2,00.0,34.9,27.7,15.1,0000.0,0023.34,0005.82,0002.73
2022-05-11 11:52:00,,0823.2,5.00,0.00,25.9,25.2,00.0,34.9,27.7,15.2,0000.0,0023.76,0005.80,0002.73
2022-05-11 11:53:00,,0823.2,5.01,0.00,25.9,25.2,00.0,34.9,27.7,15.2,0000.0,0025.03,0005.82,0002.75
2022-05-11 11:54:00,,0823.1,4.99,0.00,25.9,25.2,00.0,34.9,27.7,15.3,0000.0,0025.42,0005.85,0002.76
2022-05-11 11:55:00,,0823.1,5.00,0.00,25.9,25.2,00.0,34.9,27.8,15.3,0000.0,0026.20,0005.83,0002.76
2022-05-11 11:56:00,,0823.1,5.00,0.00,25.9,25.2,00.0,34.9,27.8,15.2,0000.0,0026.64,0005.82,0002.76
2022-05-11 11:57:00,,0823.1,5.00,0.00,25.9,25.2,00.0,34.9,27.8,14.9,0000.0,0026.19,0005.86,0002.76
2022-05-11 11:58:00,,0823.1,5.00,0.00,25.9,25.3,00.0,34.9,27.8,14.9,0000.0,0025.75,0005.89,0002.76
2022-05-11 11:59:00,,0823.1,5.00,0.00,25.9,25.2,00.0,34.9,27.8,15.0,0000.0,0026.33,0005.84,0002.77
